#timestamp,LO_Frequency,Hit,StdDev 
1663596015.5,286047019.2,N
1663596035.3,286047020.4,Y
1663596055.2,286046996.6,P
1663596075.0,286046996.1,N
1663596075.9,286046996.1,N
1663596095.7,286046997.5,N
1663596115.6,286047001.2,N
1663596135.4,286047002.7,N
1663596155.3,286047002.3,N
1663596175.1,286047000.2,N
1663596176.0,286047000.2,N
1663596195.8,286047002.3,N
1663596215.7,286047002.8,N
1663596235.5,286046999.5,N
1663596255.3,286046996.5,N
1663596275.2,286046996.8,N
1663596295.0,286046996.5,N
1663596295.9,286046996.5,N
1663596315.8,286046995.0,N
1663596335.6,286046995.7,N
1663596355.4,286046997.8,N
1663596375.3,286046996.5,N
1663596395.1,286046997.1,N
1663596415.8,286046999.4,N
1663596435.7,286046998.1,N
1663596455.5,286047000.5,N
1663596475.4,286046997.7,N
1663596495.2,286046997.0,N
1663596515.0,286046994.9,N
1663596515.9,286046994.9,N
1663596535.8,286046996.5,N
1663596555.6,286046998.0,N
1663596575.4,286046995.7,N
1663596595.3,286046995.2,N
1663596615.1,286046995.9,N
1663596635.9,286046992.3,Y
1663596655.7,286046988.8,P
1663596675.5,286046986.9,N
1663596695.4,286046985.9,N
1663596715.2,286046986.3,N
1663596735.0,286046989.7,N
1663596735.9,286046989.7,N
1663596755.8,286046989.7,N
1663596775.6,286046988.5,Y
1663596795.5,286047002.8,P
1663596815.3,286047004.0,N
1663596835.1,286047004.5,N
1663596855.9,286047004.8,N
1663596875.7,286047007.5,N
1663596895.5,286047007.6,N
1663596915.4,286047006.0,N
1663596935.2,286047005.9,N
1663596955.1,286046998.4,N
1663596956.0,286046998.4,N
1663596975.8,286046997.4,N
1663596995.6,286046990.1,N
1663597015.5,286046988.0,N
1663597035.3,286046985.4,N
1663597055.1,286046988.3,N
1663597075.9,286046985.9,N
1663597095.7,286046986.4,N
1663597115.6,286046986.5,N
1663597135.4,286046979.1,N
1663597155.2,286046974.3,N
1663597175.1,286046973.2,N
1663597176.0,286046973.2,N
1663597195.8,286046972.2,N
1663597215.6,286046968.8,N
1663597235.5,286046970.2,N
1663597255.3,286046969.7,N
1663597275.2,286046970.0,N
1663597295.9,286046974.5,N
1663597315.7,286046974.8,N
1663597335.6,286046976.0,N
1663597355.4,286046973.9,N
1663597375.2,286046970.4,N
1663597395.1,286046967.8,N
1663597396.0,286046967.8,N
1663597415.8,286046968.8,N
1663597435.6,286046968.9,N
1663597455.5,286046967.3,N
1663597475.3,286046969.8,N
1663597495.2,286046972.0,N
1663597515.9,286046967.3,Y
1663597535.7,286046989.4,P
1663597555.6,286046988.3,N
1663597575.4,286046984.3,N
1663597595.3,286046985.4,Y
1663597615.1,286047003.9,P
1663597616.0,286047003.9,N
1663597635.8,286047005.2,N
1663597655.7,286047003.6,N
1663597675.5,286046998.1,N
1663597695.3,286046994.0,N
1663597715.2,286046993.2,N
1663597735.0,286046994.7,N
1663597735.9,286046994.7,N
1663597755.8,286046992.1,N
1663597775.6,286046995.2,N
1663597795.4,286046991.7,N
1663597815.3,286046996.4,N
1663597835.1,286046999.1,N
1663597855.8,286047001.1,N
1663597875.7,286046998.4,N
1663597895.5,286046994.5,N
1663597915.3,286046992.4,N
1663597935.2,286046986.9,N
1663597955.0,286046991.5,N
1663597955.9,286046991.5,N
1663597975.8,286046990.4,N
1663597995.6,286046989.7,N
1663598015.4,286046993.1,N
1663598035.3,286046988.8,N
1663598055.1,286046984.2,N
1663598075.8,286046985.2,N
1663598095.7,286046982.7,Y
1663598115.5,286046988.2,P
1663598135.4,286046989.0,P
1663598155.2,286046992.3,N
1663598175.0,286046998.0,N
1663598175.9,286046998.0,N
1663598195.8,286046991.7,N
1663598215.6,286046987.3,Y
1663598235.5,286047001.2,P
1663598255.3,286046999.4,N
1663598275.1,286046995.0,N
1663598295.9,286046995.4,N
1663598315.7,286046991.8,N
1663598335.5,286046994.5,N
1663598355.4,286046994.3,N
1663598375.2,286046990.3,Y
1663598395.1,286046997.9,P
1663598396.0,286046997.9,N
1663598415.8,286046991.8,P
1663598435.6,286046991.0,Y
1663598455.5,286046992.1,P
1663598475.3,286046999.1,N
1663598495.1,286046998.8,N
1663598515.9,286046995.5,N
1663598535.7,286046993.7,N
1663598555.6,286046992.4,Y
1663598575.4,286046993.9,P
1663598595.2,286046989.0,P
1663598615.1,286046989.3,P
1663598616.0,286046989.3,Y
1663598635.8,286046998.3,P
1663598655.7,286046996.7,N
1663598675.5,286047001.5,N
1663598695.3,286047003.5,N
1663598715.2,286047003.4,N
1663598735.0,286047006.5,N
1663598735.9,286047006.5,N
1663598755.7,286047005.7,N
1663598775.6,286047003.6,N
1663598795.4,286047000.5,N
1663598815.3,286046999.7,N
1663598835.1,286047000.7,N
1663598836.0,286047000.7,N
1663598855.8,286046999.4,N
1663598875.7,286046998.7,N
1663598895.5,286047000.3,N
1663598915.4,286047004.2,N
1663598935.2,286047003.6,N
1663598955.0,286047004.3,N
1663598956.0,286047004.3,N
1663598975.8,286047002.6,N
1663598995.6,286046998.1,N
1663599015.5,286046999.5,N
1663599035.3,286046998.1,N
1663599055.1,286047000.5,N
1663599075.9,286046999.4,N
1663599095.7,286046996.5,N
1663599115.6,286046999.1,N
1663599135.4,286047000.1,N
1663599155.2,286047000.6,N
1663599175.1,286047002.7,N
1663599176.0,286047002.7,N
1663599195.8,286047001.7,N
1663599215.6,286046999.7,N
1663599235.5,286046999.5,N
1663599255.3,286046994.0,N
1663599275.2,286046992.5,N
1663599295.9,286046994.0,N
1663599315.7,286046996.3,N
1663599335.6,286046998.9,N
1663599355.4,286046995.4,N
1663599375.2,286046995.4,N
1663599395.1,286046999.6,N
1663599396.0,286046999.6,N
1663599415.8,286046996.1,N
1663599435.7,286046994.0,N
1663599455.5,286046994.9,N
1663599475.3,286046992.3,N
1663599495.2,286046991.2,N
1663599515.0,286046993.2,N
1663599515.9,286046993.2,N
1663599535.8,286046989.7,Y
1663599555.6,286046990.4,P
1663599575.4,286046993.1,N
1663599595.3,286046991.0,P
